Flag for Switzerland Weather past 2 weeks in Chur, Graubünden, Switzerland

Now
47 °F

Cool.


Feels Like: 47 °F
Forecast: 36 / 60 °F
Wind: 2 mph from Southeast

Location: Chur-Ems

Current Time: Oct 25, 2014 at 10:51:39 PM

Latest Report: Oct 25, 2014 at 10:00 PM


Visibility: N/A

Pressure: 30.27 "Hg

Humidity: 92%

Dew point: 45 °F

Location of ChurLocation

Historic Weather in Chur — Graph

°F

Chur temperature yesterday

Maximum temperature yesterday: 54 °F (at 4:00 PM)
Minimum temperature yesterday: 36 °F (at 7:00 AM)
Average temperature yesterday: 43 °F

Past Weeks' High & Low Weather Summary

 TemperatureHumidityPressure
High76 °F (Oct 12, 2:00 PM)96% (Oct 13, 9:00 PM)30.32 "Hg (Oct 13, 9:00 PM)
Low36 °F (Oct 24, 7:00 AM)35% (Oct 12, 5:00 PM)29.72 "Hg (Oct 21, 9:00 PM)
Average54 °F77%30.05 "Hg
* Reported Oct 10 9:00 PM — Oct 25 9:00 PM, Chur, Weather by CustomWeather, © 2014

Note: Actual official high and low records may vary slightly from our data, if they occured in-between our weather recording intervals... More about our weather records

Advertising

Chur weather history for previous 24 hours

 ConditionsComfort  
Time TempWeatherWind HumidityBarometerVisibility
9:00 PM
Oct 25
47 °FCool.2 mph93%30.27 "HgN/A
8:00 PM48 °FOvercast.2 mph91%30.25 "Hg6 mi
7:00 PM49 °FCool.2 mph85%30.23 "HgN/A
6:00 PM50 °FCool.6 mph80%30.21 "HgN/A
5:00 PM51 °FOvercast.3 mph80%30.18 "Hg12 mi
4:00 PM54 °FCool.5 mph66%30.15 "HgN/A
3:00 PM54 °FCool.2 mph58%30.14 "HgN/A
2:00 PM53 °FOvercast.2 mph62%30.15 "Hg19 mi
1:00 PM52 °FCool.5 mph58%30.16 "HgN/A
12:00 PM51 °FCool.5 mph62%30.18 "HgN/A
11:00 AM47 °FOvercast.6 mph71%30.20 "Hg19 mi
10:00 AM45 °FCool.3 mph75%30.21 "HgN/A
9:00 AM44 °FQuite cool.2 mph74%30.20 "HgN/A
8:00 AM42 °FOvercast.2 mph81%30.19 "Hg19 mi
7:00 AM42 °FQuite cool.3 mph79%30.19 "HgN/A
6:00 AM42 °FQuite cool.3 mph80%30.19 "HgN/A
5:00 AM42 °FFog.5 mph77%30.19 "Hg7 mi
4:00 AM42 °FQuite cool.3 mph77%30.20 "HgN/A
3:00 AM42 °FQuite cool.6 mph78%30.22 "HgN/A
2:00 AM41 °FFog.5 mph82%30.23 "Hg7 mi
1:00 AM41 °FQuite cool.6 mph82%30.22 "HgN/A
12:00 AM41 °FQuite cool.3 mph85%30.23 "HgN/A
11:00 PM
Oct 24
41 °FClear.3 mph84%30.23 "Hg12 mi
10:00 PM42 °FQuite cool.5 mph84%30.22 "HgN/A
Weather by CustomWeather, © 2014

See weather overviewHow to use our weather pages